Location: Gesvres
(49.0440°N, 2.8518°E)
Time: 07:24:02
(UTC+00:00)

Cosmos 1844 Rocket - Visible Passes

Search period start: 24 September 2023 00:00
Search period end: 04 October 2023 00:00
Orbit: 825 x 843 km, 71.0° (Epoch: 23 September)

Date Brightness Start Highest point End Pass type
(mag) Time Alt. Az. Time Alt. Az. Time Alt. Az.
24 Sep 3.3 18:38:45 10° NW 18:44:13 58° WSW 18:49:39 10° S visible
25 Sep 3.2 18:21:23 10° NNW 18:26:54 63° WSW 18:32:22 10° SSE visible
26 Sep 3.1 18:04:01 10° NNW 18:09:34 68° WSW 18:15:05 10° SSE visible
26 Sep 5.7 19:51:01 10° W 19:52:22 11° W 19:53:42 10° WSW visible
27 Sep 5.6 19:33:02 10° WNW 19:35:06 12° W 19:37:11 10° WSW visible
28 Sep 5.6 19:15:16 10° WNW 19:17:51 13° W 19:20:26 10° SW visible
29 Sep 5.6 18:57:35 10° WNW 19:00:35 15° W 19:03:35 10° SW visible
30 Sep 5.6 18:40:00 10° WNW 18:43:19 16° W 18:46:39 10° SW visible
01 Oct 5.5 18:22:26 10° WNW 18:26:03 18° W 18:29:40 10° SW visible
02 Oct 5.5 18:04:54 10° NW 18:08:47 20° W 18:12:39 10° SW visible
